コワル第2彗星

104P/Kowal 2 (2004)

English version
Home page
Updated on March 9, 2004

---------------------------------------------------------------------

・ プロフィール

・ 軌道要素

Epoch 2004 Apr. 25.0 TT = JDT 2453120.5
T 2004 May  9.19293 TT                                  MPC
q   1.3959496            (2000.0)            P               Q
n   0.15952253     Peri.  192.04350     +0.21263870     -0.94614024
a   3.3670898      Node   246.08540     +0.91720693     +0.27941863
e   0.5854136      Incl.   15.48972     +0.33692170     -0.16353554
P   6.18
>From 93 observations 1997 May 14-June 7 and 1997 Nov. 24-2003 Sept. 28, mean
   residual 0".66.

・ 星図

・ 光度変化

        m1 = 12.2 + 5 logΔ + 16.5 log r

        ※ 灰色の曲線は、m1 = 10.3 + 5 logΔ + 12.5 log r の光度曲線です。

---------------------------------------------------------------------

軌道要素はMPCのEphemerides and Orbital Elementsに掲載されたものです。
星図は StellaNavigator Ver.2.0 for Windows (アストロアーツ 編著 / アスキー出版局刊) で作成したものです。
光度グラフはComet for Windowsで作成したものです。

---------------------------------------------------------------------

Copyright(C) Seiichi Yoshida (comet@aerith.net). All rights reserved.